FW6101 Maywood NJ US current weather conditions

sailwx.info

Wind from 315

Air temperature -0.6° C
Dewpoint -7.1° C

Last reported at 2019-Dec-07 09:59 UTC.
Time now 2019-Dec-07 11:10 UTC

Location: N 40°53' W 074°04'.
View on Google Maps.

See reports from other nearby stations

  
Tides and Currents Weather Stations Pressure Air Temp Water Temp Dewpoint Dewpoint Depression Visibility Wind Speed Wind Dir Waves Ship Positions
date/time (UTC)wind fromknots sea level pressurealtimeterstation pressurevisibilityair tempwater tempwave heightnotes
2019-Dec-07 09:59 315 -0.6
2019-Dec-07 09:49 293 -0.6
2019-Dec-07 09:39 248 -0.0
2019-Dec-07 09:29 270 -0.0
2019-Dec-07 09:19 248 -0.0
2019-Dec-07 09:09 270 -0.0
2019-Dec-07 08:59 270 0 gusting 6 -0.0
2019-Dec-07 08:49 270 0.6
2019-Dec-07 08:39 248 0.6
2019-Dec-07 08:30 315 2 gusting 7 0.6
2019-Dec-07 08:19 315 5 gusting 9 1.1
2019-Dec-07 08:09 315 3 gusting 9 1.1
2019-Dec-07 08:00 338 5 gusting 10 1.1
2019-Dec-07 07:49 270 7 gusting 9 1.1
2019-Dec-07 07:39 315 0 gusting 7 1.1
2019-Dec-07 07:29 315 5 gusting 7 1.1
2019-Dec-07 07:19 315 1.1
2019-Dec-07 07:09 270 3 gusting 9 1.1
2019-Dec-07 06:59 315 0 gusting 13 1.7
2019-Dec-07 06:49 315 10 gusting 13 1.7
2019-Dec-07 06:39 338 5 gusting 13 1.7
2019-Dec-07 06:29 1.7
2019-Dec-07 06:19 293 7 gusting 12 1.7
2019-Dec-07 06:09 270 7 gusting 9 1.7
2019-Dec-07 05:59 315 3 gusting 12 2.2
2019-Dec-07 05:49 315 4 gusting 12 2.2
2019-Dec-07 05:39 315 5 gusting 12 2.2
2019-Dec-07 05:29 270 3 gusting 12 2.2
2019-Dec-07 05:20 315 6 gusting 10 2.2
2019-Dec-07 05:09 315 5 gusting 10 2.2
2019-Dec-07 04:59 315 6 gusting 12 2.8
2019-Dec-07 04:49 315 3 gusting 12 2.8
2019-Dec-07 04:39 270 5 gusting 10 2.8
2019-Dec-07 04:29 293 2 gusting 10 2.8
2019-Dec-07 04:19 315 5 gusting 13 3.3
2019-Dec-07 04:09 315 6 gusting 10 3.3
2019-Dec-07 03:59 315 3 gusting 10 3.3
2019-Dec-07 03:49 270 5 gusting 10 3.3
2019-Dec-07 03:40 315 7 gusting 10 3.9
2019-Dec-07 03:29 293 4 gusting 8 3.9
2019-Dec-07 03:19 338 6 gusting 8 3.9
2019-Dec-07 03:09 4.4
2019-Dec-07 02:59 315 6 gusting 12 4.4
2019-Dec-07 02:49 315 6 gusting 12 5.0
2019-Dec-07 02:39 293 6 gusting 12 5.0
2019-Dec-07 02:29 315 3 gusting 14 5.0
2019-Dec-07 02:19 270 6 gusting 14 5.6
2019-Dec-07 02:10 293 4 gusting 20 5.6
2019-Dec-07 01:59 338 4 gusting 20 6.1
2019-Dec-07 01:49 6.1
2019-Dec-07 01:39 270 6 gusting 13 6.7
2019-Dec-07 01:19 293 10 gusting 12 7.2
2019-Dec-07 01:09 7.2
2019-Dec-07 00:59 270 12 gusting 18 7.8
2019-Dec-07 00:49 315 8.3
2019-Dec-07 00:39 270 13 gusting 13 8.3
2019-Dec-07 00:29 225 7 gusting 10 8.3
2019-Dec-07 00:19 315 8.3
2019-Dec-07 00:09 8.3
2019-Dec-06 23:59 180 2 gusting 6 8.3
2019-Dec-06 23:49 248 3 gusting 6 8.3
2019-Dec-06 23:39 225 2 gusting 6 8.3
2019-Dec-06 23:29 248 8.3
2019-Dec-06 23:19 338 8.3
2019-Dec-06 23:09 225 8.9
2019-Dec-06 22:59 248 8.9
2019-Dec-06 22:49 225 8.9
2019-Dec-06 22:39 225 8.9
2019-Dec-06 22:29 225 0 gusting 1 8.9
2019-Dec-06 22:19 203 8.9
2019-Dec-06 22:09 225 8.9
2019-Dec-06 21:59 248 2 gusting 7 8.9
2019-Dec-06 21:49 225 8.9
2019-Dec-06 21:40 203 9.4
2019-Dec-06 21:29 180 8 gusting 10 9.4
2019-Dec-06 21:19 203 1 gusting 7 9.4
2019-Dec-06 21:09 225 3 gusting 7 9.4
2019-Dec-06 20:59 225 2 gusting 7 9.4
2019-Dec-06 20:49 180 4 gusting 6 8.9
2019-Dec-06 20:40 203 8.9
2019-Dec-06 20:29 225 8.9
2019-Dec-06 20:19 203 5 gusting 9 8.9
2019-Dec-06 20:09 225 6 gusting 14 8.9
2019-Dec-06 19:59 180 8.9
2019-Dec-06 19:49 203 5 gusting 8 8.9
2019-Dec-06 19:39 203 3 gusting 10 8.9
2019-Dec-06 19:09 180 2 gusting 6 8.3
2019-Dec-06 18:59 113 2 gusting 6 8.3
2019-Dec-06 18:49 203 8.3
2019-Dec-06 18:39 180 7.8
2019-Dec-06 18:29 180 7.8
2019-Dec-06 18:19 180 7.8
2019-Dec-06 18:09 203 2 gusting 6 7.2
2019-Dec-06 17:49 180 6 gusting 12 7.2
2019-Dec-06 17:39 203 6 gusting 9 7.2
2019-Dec-06 17:29 180 4 gusting 12 7.2
2019-Dec-06 17:19 225 2 gusting 7 7.8
2019-Dec-06 17:09 203 7.2
2019-Dec-06 16:59 180 5 gusting 16 7.2
2019-Dec-06 16:49 203 6 gusting 10 7.2
2019-Dec-06 16:39 180 3 gusting 7 6.7
2019-Dec-06 16:29 180 6 gusting 6 6.1
2019-Dec-06 16:19 158 2 gusting 11 6.1
2019-Dec-06 16:10 180 9 gusting 11 5.6
2019-Dec-06 15:59 203 3 gusting 10 5.6
2019-Dec-06 15:49 158 1 gusting 6 5.0
2019-Dec-06 15:39 180 2 gusting 7 5.0
2019-Dec-06 15:29 180 3 gusting 6 5.0
2019-Dec-06 15:19 225 1 gusting 5 4.4
2019-Dec-06 15:09 225 2 gusting 6 4.4
2019-Dec-06 14:59 203 4.4
2019-Dec-06 14:49 180 3.9
2019-Dec-06 14:40 180 1 gusting 7 3.9
2019-Dec-06 14:29 203 1 gusting 3 3.9
2019-Dec-06 14:19 180 3.9
2019-Dec-06 14:09 203 3.9
2019-Dec-06 13:59 203 2 gusting 6 3.9
2019-Dec-06 13:49 225 3.3
2019-Dec-06 13:39 180 5 gusting 5 2.8
2019-Dec-06 13:29 225 2.8
2019-Dec-06 13:19 225 2.8
2019-Dec-06 13:09 203 2.2
2019-Dec-06 12:59 180 1 gusting 2 1.7
2019-Dec-06 12:49 180 1.7
2019-Dec-06 12:39 203 1 gusting 2 1.7
2019-Dec-06 12:29 180 1.1
2019-Dec-06 12:19 180 1.1
2019-Dec-06 12:10 180 1.1
2019-Dec-06 12:00 203 1.1
2019-Dec-06 11:49 203 1.1
2019-Dec-06 11:39 203 0 gusting 1 1.1
2019-Dec-06 11:29 203 1.1
2019-Dec-06 11:19 225 0.6
2019-Dec-06 11:09 225 0.6
2019-Dec-06 10:59 203 0.6
2019-Dec-06 10:49 203 0.6
2019-Dec-06 10:39 203 0.6
2019-Dec-06 10:30 203 -0.0
2019-Dec-06 10:19 203 -0.0
2019-Dec-06 10:09 225 -0.0
2019-Dec-06 09:59 225 -0.0
2019-Dec-06 09:49 225 -0.0
2019-Dec-06 09:39 225 -0.0
2019-Dec-06 09:29 225 -0.0
2019-Dec-06 09:19 225 -0.0
2019-Dec-06 09:09 248 -0.0
2019-Dec-06 08:59 248 -0.0
2019-Dec-06 08:49 248 0.6
2019-Dec-06 08:39 248 0.6
2019-Dec-06 08:29 248 0.6
2019-Dec-06 08:19 248 0.6
2019-Dec-06 08:09 248 0.6
2019-Dec-06 07:59 315 0.6
2019-Dec-06 07:49 270 0.6
2019-Dec-06 07:39 315 0.6
2019-Dec-06 07:29 270 1.1
2019-Dec-06 07:19 315 1.1
2019-Dec-06 07:09 225 4 gusting 9 1.1
2019-Dec-06 06:59 270 7 gusting 9 1.1
2019-Dec-06 06:49 270 1.1
2019-Dec-06 06:39 225 1.1
2019-Dec-06 06:29 248 1.7
2019-Dec-06 06:19 225 0 gusting 5 1.7
2019-Dec-06 06:09 225 2 gusting 6 1.7
2019-Dec-06 05:59 270 1.7
2019-Dec-06 05:49 315 2.2
2019-Dec-06 05:39 270 2 gusting 15 2.2
2019-Dec-06 05:29 315 3 gusting 15 2.2
2019-Dec-06 05:20 203 2 gusting 6 2.2
2019-Dec-06 05:09 203 2.2
2019-Dec-06 04:59 180 2.2
2019-Dec-06 04:49 270 3 gusting 9 2.2
2019-Dec-06 04:39 315 2 gusting 8 2.2
2019-Dec-06 04:29 293 2.2
2019-Dec-06 04:19 315 11 gusting 13 2.2
2019-Dec-06 04:09 315 6 gusting 18 2.2
2019-Dec-06 03:59 315 10 gusting 18 2.8
2019-Dec-06 03:49 315 6 gusting 16 2.8
2019-Dec-06 03:39 293 7 gusting 16 2.8
2019-Dec-06 03:29 270 9 gusting 13 2.8
2019-Dec-06 03:19 315 7 gusting 11 2.8
2019-Dec-06 03:09 2.8
2019-Dec-06 02:59 293 6 gusting 9 2.8
2019-Dec-06 02:49 315 9 gusting 13 2.8
2019-Dec-06 02:39 225 7 gusting 17 2.8
2019-Dec-06 02:29 180 2 gusting 17 2.2
2019-Dec-06 02:19 270 10 gusting 13 2.2
2019-Dec-06 02:09 315 6 gusting 9 2.2
2019-Dec-06 01:59 293 3 gusting 7 2.2
2019-Dec-06 01:49 315 5 gusting 5 2.2
2019-Dec-06 01:39 293 4 gusting 10 2.2
2019-Dec-06 01:29 180 2.2
2019-Dec-06 01:19 270 2.2
2019-Dec-06 01:09 225 2.2
2019-Dec-06 00:59 315 2.2
2019-Dec-06 00:49 315 5 gusting 12 2.8
2019-Dec-06 00:39 270 4 gusting 11 2.2
2019-Dec-06 00:29 225 2 gusting 11 2.2
2019-Dec-06 00:19 315 2.8
2019-Dec-06 00:09 225 4 gusting 5 2.8
2019-Dec-05 23:59 248 2.8
2019-Dec-05 23:49 225 2.8
2019-Dec-05 23:39 315 2 gusting 8 2.8
2019-Dec-05 23:29 248 2 gusting 6 2.8
2019-Dec-05 23:19 225 2 gusting 9 2.8
2019-Dec-05 23:09 315 2.8
2019-Dec-05 22:59 270 3.3
2019-Dec-05 22:49 293 2 gusting 11 3.3
2019-Dec-05 22:39 293 3 gusting 7 3.3
2019-Dec-05 22:29 270 3 gusting 7 3.3
2019-Dec-05 22:19 248 3.3
2019-Dec-05 22:09 270 0 gusting 11 3.3
2019-Dec-05 21:59 225 4 gusting 13 3.3
2019-Dec-05 21:49 338 3 gusting 8 3.3
2019-Dec-05 21:39 225 0 gusting 10 3.9
2019-Dec-05 21:29 270 2 gusting 10 3.9
2019-Dec-05 21:19 270 3.9
2019-Dec-05 21:09 203 2 gusting 9 4.4
2019-Dec-05 20:59 248 4 gusting 9 4.4
2019-Dec-05 20:40 225 1 gusting 10 5.0
2019-Dec-05 20:29 225 0 gusting 20 4.4
2019-Dec-05 20:19 338 4 gusting 20 4.4
2019-Dec-05 20:10 293 2 gusting 14 4.4
2019-Dec-05 19:59 315 6 gusting 17 4.4
2019-Dec-05 19:49 338 4 gusting 12 5.0
2019-Dec-05 19:40 338 1 gusting 13 5.0
2019-Dec-05 19:29 270 12 gusting 13 5.0
2019-Dec-05 19:19 315 3 gusting 14 5.0
2019-Dec-05 19:09 270 5 gusting 24 5.6
2019-Dec-05 18:59 270 13 gusting 19 5.6
2019-Dec-05 18:50 315 7 gusting 22 5.6
2019-Dec-05 18:39 315 10 gusting 22 5.6
2019-Dec-05 18:29 225 5 gusting 14 5.6
2019-Dec-05 18:19 270 10 gusting 19 5.6
2019-Dec-05 18:09 315 5 gusting 14 5.0
2019-Dec-05 17:59 338 2 gusting 13 5.6
2019-Dec-05 17:39 315 4 gusting 16 5.6
2019-Dec-05 17:29 315 10 gusting 20 5.0
2019-Dec-05 17:19 270 11 gusting 20 5.0
2019-Dec-05 17:09 315 3 gusting 15 5.0
2019-Dec-05 16:59 315 6 gusting 15 4.4
2019-Dec-05 16:49 225 5 gusting 23 4.4
2019-Dec-05 16:39 315 7 gusting 23 4.4
2019-Dec-05 16:29 270 6 gusting 14 5.0
2019-Dec-05 16:19 270 4.4
2019-Dec-05 16:09 293 4 gusting 17 4.4
2019-Dec-05 15:59 270 9 gusting 14 4.4
2019-Dec-05 15:49 270 7 gusting 16 4.4
2019-Dec-05 15:39 315 1 gusting 16 5.0
2019-Dec-05 15:29 315 2 gusting 9 5.0
2019-Dec-05 15:20 270 2 gusting 10 5.0
2019-Dec-05 15:09 315 4 gusting 11 5.0
2019-Dec-05 14:59 225 1 gusting 8 5.0
2019-Dec-05 14:49 293 6 gusting 9 5.0
2019-Dec-05 14:39 248 6 gusting 9 4.4
2019-Dec-05 14:29 225 5.0
2019-Dec-05 14:19 315 4.4
2019-Dec-05 14:09 270 3.9
2019-Dec-05 13:59 270 3.9
2019-Dec-05 13:49 338 3 gusting 6 3.9
2019-Dec-05 13:39 248 3.3
2019-Dec-05 13:29 180 3.3
2019-Dec-05 13:19 270 3.3
2019-Dec-05 13:09 225 3.3
2019-Dec-05 12:59 225 2.8
2019-Dec-05 12:49 248 2.2
2019-Dec-05 12:39 248 1.7
2019-Dec-05 12:29 248 1.7
2019-Dec-05 12:20 225 1.7
2019-Dec-05 12:09 270 2.2
2019-Dec-05 11:59 270 2.2
2019-Dec-05 11:49 203 2.2
2019-Dec-05 11:39 270 2.2
2019-Dec-05 11:29 270 2.2
2019-Dec-05 11:19 225 2.2
2019-Dec-05 11:09 248 2.2